Location: Bli��� Lhota
(48.7570°N, 14.0120°E)
Time: 08:35:52
(UTC+00:00)

USA 234 - Pass Details

Date: 18 September 2020
Orbit: 1102 x 1106 km, 123.0° (Epoch: 16 October)

Event Time Altitude Azimuth Distance (km) Brightness Sun altitude
Rises 23:40:59 0° 85° (E) 3,919 6.4 -39.0°
Reaches altitude 10° 23:43:34 10° 80° (E) 2,962 5.7 -38.9°
Maximum altitude 23:49:43 46° 10° (N) 1,443 4.1 -38.6°
Enters shadow 23:50:38 44° 347° (NNW) 1,495 4.1 -38.6°
Exits shadow 23:54:27 17° 305° (NW) 2,462 5.2 -38.4°
Drops below altitude 10° 23:55:54 10° 300° (WNW) 2,967 5.6 -38.3°
Sets 23:58:28 0° 294° (WNW) 3,926 6.2 -38.2°
